Terug naar catalogus

ONEWEB-0228

ActiefCommunicatiePO
NORAD 48780·PAYLOAD·🇬🇧 United Kingdom

Gelanceerd May 28, 2021 vanaf Vostochny Cosmodrome

Loading…

Volgende Passages (komende 24 uur)

TLE

VersSource: CelesTrak SupGP

Epoch: Sep 15, 2026, 00:01 UTC

1 48780C 21045P   26258.00118472 -.00002916  00000+0 -77543-2 0  2580
2 48780  87.8997 241.2842 0002055  83.8023 305.9379 13.15553078    11

Volg ONEWEB-0228 in realtime met AllMySat

Download on the App Store